OK1VOF-13 Weather Reports


time (UTC)temp
F
wind
direction
speed
knots
gust
knots
rain 1hr
in
rain 24hr
in
rain mn
in
humidity
%
barometer
mb
20260905164903 76 20 1.7 2.6 0.00 3.52 0.00 45 1021.1
20260905164405 76 118 0.9 2.6 0.00 3.52 0.00 45 1021.2
20260905163413 78 47 1.7 2.6 0.00 3.52 0.00 45 1021.0
20260905161409 78 49 0.9 1.7 0.13 3.52 0.00 46 1020.9
20260905160913 78 110 1.7 2.6 0.13 3.52 0.00 47 1020.8
20260905154357 76 15 1.7 3.5 0.34 3.52 0.00 48 1020.6
20260905153855 76 58 2.6 5.2 0.34 3.52 0.00 48 1020.7
20260905153353 76 94 2.6 4.3 0.34 3.52 0.00 48 1020.6
20260905152857 76 77 1.7 5.2 0.34 3.52 0.00 49 1020.6
20260905152349 76 17 1.7 3.5 0.34 3.52 0.00 49 1020.9
20260905150348 77 64 1.7 3.5 0.21 3.51 0.00 50 1020.5
20260905144842 77 102 1.7 3.5 0.00 3.49 0.00 52 1020.5
20260905144343 77 128 0.9 3.5 0.00 3.49 0.00 53 1020.5
20260905143339 75 96 1.7 5.2 0.00 3.49 0.00 54 1020.4
20260905140357 72 120 0.9 2.6 0.00 3.49 0.00 54 1020.4
20260905130445 70 51 1.7 4.3 0.00 3.49 0.00 55 1020.9
20260905123454 70 69 1.7 2.6 2.13 3.49 0.00 58 1021.0
20260905120456 68 124 0.9 2.6 2.13 3.49 0.00 61 1021.4
20260905113507 68 90 0.9 2.6 0.00 3.28 0.00 62 1021.1
20260905113005 67 119 0.9 3.5 1.04 3.28 0.00 62 1021.1
20260905111506 67 65 1.7 3.5 1.04 3.28 0.00 63 1021.2
20260905104501 67 338 0.9 2.6 1.04 3.28 0.00 65 1021.0
20260905104006 67 89 0.9 3.5 1.04 3.28 0.00 65 1021.0
20260905103457 67 94 0.9 2.6 1.04 3.28 0.00 65 1020.8
20260905102937 67 117 0.9 1.7 0.00 2.23 0.00 66 1020.8
20260905100443 65 34 0.9 2.6 0.00 2.23 0.00 66 1020.8
20260905095944 65 69 0.9 3.5 0.00 2.23 0.00 66 1021.0
20260905095445 65 56 1.7 2.6 0.00 2.23 0.00 66 1021.4
20260905094448 65 88 1.7 3.5 0.00 2.23 0.00 67 1021.2
20260905093450 65 136 0.9 0.9 0.00 2.23 0.00 67 1020.9
20260905092951 65 78 0.9 2.6 0.00 2.23 0.00 68 1021.2
20260905091455 64 47 0.9 2.6 0.00 2.23 0.00 68 1021.1
20260905090950 64 86 1.7 4.3 0.00 2.23 0.00 68 1021.4
20260905090451 63 160 0.9 5.2 0.00 2.23 0.00 68 1021.3
20260905085952 63 131 0.9 3.5 0.00 2.23 0.00 68 1021.2
20260905085453 63 138 0.9 2.6 0.00 2.23 0.00 68 1021.3
20260905084954 63 55 1.7 2.6 0.00 2.23 0.00 68 1021.3
20260905084456 63 54 0.9 2.6 0.00 2.23 0.00 68 1021.0
20260905084003 63 110 0.9 2.6 0.00 2.23 0.00 68 1020.9
20260905083504 63 41 0.9 2.6 0.00 2.23 0.00 68 1021.0
20260905083006 62 47 0.9 2.6 0.00 2.23 0.00 68 1021.1
20260905082507 62 86 0.9 2.6 0.00 2.23 0.00 68 1021.0
20260905081509 62 56 1.7 2.6 0.00 2.23 0.00 68 1020.9
20260905081004 62 39 1.7 3.5 0.00 2.23 0.00 67 1020.8
20260905080505 62 55 1.7 4.3 0.00 2.23 0.00 68 1020.7
20260905075015 61 121 0.0 0.9 0.00 2.23 0.00 68 1020.5
20260905072521 60 94 0.0 0.9 0.00 2.23 0.00 67 1020.4
20260905071524 60 114 0.0 0.9 0.00 2.23 0.00 67 1020.5
20260905071022 60 50 0.9 1.7 0.03 2.23 0.00 67 1020.4
20260905070018 60 105 0.9 0.9 2.23 2.23 0.00 67 1020.3
20260905065516 60 66 0.0 0.9 2.23 2.23 0.00 67 1020.3
20260905064505 59 21 0.9 1.7 2.23 2.23 0.00 67 1020.3
20260905064003 59 119 0.9 1.7 2.23 2.23 0.00 67 1020.3
20260905063006 59 88 0.9 1.7 2.23 2.23 0.00 67 1020.2
20260905062504 59 91 0.9 1.7 2.23 2.23 0.00 67 1020.0
20260905061454 59 82 0.9 2.6 2.23 2.23 0.00 67 1020.0
20260905060951 59 135 0.9 2.6 2.22 2.23 0.00 67 1019.9
20260905060403 59 83 0.9 2.6 0.00 1.28 0.00 66 1019.9
20260905055905 59 116 0.9 1.7 0.00 1.28 0.00 66 1019.9
20260905055402 59 3 1.7 3.5 0.01 1.45 0.00 66 1019.9
20260905054405 59 72 0.9 1.7 0.01 1.45 0.00 66 1019.3
20260905053856 59 67 0.0 0.9 0.02 1.45 0.00 66 1019.3
20260905053401 59 4 0.9 1.7 0.04 1.45 0.00 66 1019.4
20260905052852 59 93 0.9 2.6 0.05 1.45 0.00 66 1019.5
20260905050851 60 115 0.9 1.7 0.05 1.45 0.00 64 1017.8
20260905045345 61 122 0.9 2.6 0.05 1.45 0.00 64 1019.1
20260905043838 62 117 0.9 2.6 0.04 1.45 0.00 64 1019.1
20260905042330 62 125 0.0 0.9 0.01 1.45 0.00 64 1018.7
20260905041828 62 86 0.9 1.7 0.01 1.45 0.00 64 1018.5
20260905040824 63 40 0.9 1.7 0.01 1.45 0.00 64 1018.3
20260905040322 63 107 0.9 1.7 0.01 1.45 0.00 64 1018.5
20260905035821 63 68 0.9 2.6 0.00 1.45 0.00 64 1018.7
20260905035322 63 116 0.9 1.7 0.00 1.45 0.00 64 1019.1
20260905033826 63 68 0.0 0.9 0.00 1.45 0.00 63 1018.6
20260905032323 63 27 0.0 0.9 0.00 1.45 0.00 63 1017.9
20260905031831 63 97 0.9 1.7 0.00 1.45 0.00 63 1017.8
20260905031325 63 57 0.0 0.9 0.00 1.45 0.00 63 1017.9
20260905030334 63 73 0.0 0.0 0.00 1.45 0.00 63 1017.6
20260905025835 64 96 0.9 0.9 0.00 1.45 0.00 63 1017.7
20260905024831 64 73 0.9 0.9 0.00 1.45 0.00 63 1017.8
20260905024333 64 116 0.9 0.9 0.00 1.45 0.00 63 1017.9
20260905023834 64 36 0.9 1.7 0.00 1.45 0.00 63 1017.7
20260905022836 64 116 0.9 1.7 0.00 1.45 0.00 62 1017.8
20260905021845 64 82 0.0 1.7 0.00 1.45 0.00 62 1017.9
20260905020847 64 24 0.9 2.6 0.00 1.45 0.00 62 1017.3
20260905015351 65 34 1.7 3.5 0.00 1.45 0.00 62 1017.4
20260905014852 65 28 0.9 2.6 0.00 1.45 0.00 61 1017.3
20260905014353 65 22 0.9 1.7 0.00 1.45 0.00 61 1017.0
20260905013848 65 37 1.7 2.6 0.00 1.45 0.00 61 1016.8
20260905011351 66 70 0.9 2.6 0.01 1.45 0.00 60 1017.1
20260905010849 66 342 0.9 2.6 0.01 1.45 0.00 60 1016.9
20260905010354 67 67 0.9 2.6 0.01 1.45 0.00 59 1016.8
20260905005349 67 29 0.9 2.6 0.01 1.45 0.00 59 1017.0
20260905004848 67 8 1.7 2.6 0.01 1.45 0.00 59 1017.2
20260905003844 68 73 0.9 2.6 0.01 1.45 0.00 58 1016.7
20260905003342 68 131 0.9 1.7 0.01 1.45 0.00 58 1016.6
20260905002833 68 101 1.7 2.6 0.01 1.45 0.00 58 1016.6
20260904235831 70 19 1.7 1.7 0.00 1.45 0.00 57 1015.6
20260904235338 70 73 2.6 4.3 0.00 1.45 0.00 56 1015.3
20260904234833 71 138 1.7 2.6 0.00 1.45 0.00 56 1015.2
20260904234341 71 298 1.7 2.6 0.00 1.45 0.00 56 1015.4
20260904233836 72 40 1.7 5.2 0.00 1.45 0.00 56 1015.2
20260904232845 73 27 1.7 3.5 0.00 1.45 0.00 55 1015.2
20260904230849 74 44 0.9 1.7 0.00 1.45 0.00 54 1014.1
20260904225852 74 57 0.0 0.9 0.00 1.45 0.00 53 1013.6
20260904225353 75 135 0.0 0.0 0.00 1.45 0.00 53 1013.3
20260904224854 75 135 0.0 0.0 0.00 1.45 0.00 53 1013.2
20260904224349 75 60 0.0 0.0 0.00 1.45 0.00 53 1013.2
20260904223850 75 21 0.0 0.9 0.00 1.45 0.00 53 1013.3
20260904223351 75 7 0.9 1.7 0.00 1.45 0.00 53 1013.3
20260904222853 75 336 0.9 0.9 0.00 1.45 0.00 53 1013.3
20260904222354 75 47 0.9 0.9 0.00 1.45 0.00 53 1013.3
20260904221855 75 84 0.9 1.7 0.00 1.45 0.00 53 1013.3
20260904221403 76 57 0.9 2.6 0.00 1.45 0.00 53 1013.4
20260904220359 75 41 0.0 0.9 0.00 1.45 0.00 53 1013.1
20260904215401 76 114 0.0 0.9 0.00 1.45 0.00 53 1013.0
20260904214403 76 122 0.0 0.9 0.00 1.45 0.00 53 1012.8
20260904213406 76 103 0.0 0.9 0.00 1.45 0.00 53 1012.7
20260904212913 76 145 0.0 0.0 0.00 1.45 0.00 53 1012.7
20260904212415 76 120 0.0 0.0 0.00 1.45 0.00 53 1012.6
20260904210918 76 89 0.0 0.0 0.00 1.45 0.00 53 1012.6
20260904210419 76 59 0.0 0.0 0.00 1.45 0.00 53 1012.7
20260904203919 77 169 0.0 0.0 0.00 1.45 0.00 53 1012.9
20260904203420 77 155 0.0 0.0 0.00 1.45 0.00 53 1012.9
20260904202921 77 135 0.0 0.0 0.00 1.45 0.00 53 1013.0
20260904202422 77 137 0.0 0.9 0.00 1.45 0.00 53 1013.0
20260904201425 77 40 0.0 0.0 0.00 1.45 0.00 53 1013.0
20260904200933 77 92 0.0 0.0 0.00 1.45 0.00 53 1013.1
20260904200434 77 137 0.0 0.0 0.00 1.45 0.00 53 1013.1
20260904195436 78 160 0.0 0.9 0.00 1.45 0.00 52 1013.1
20260904194432 78 126 0.0 1.7 0.00 1.45 0.00 52 1013.2
20260904193435 78 99 0.0 0.0 0.00 1.45 0.00 52 1013.2
20260904192942 78 101 0.0 0.9 0.00 1.45 0.00 52 1013.2
20260904191938 79 107 0.0 0.9 0.00 1.45 0.00 52 1013.3
20260904191446 79 129 0.0 0.0 0.00 1.45 0.00 52 1013.3
20260904190947 79 96 0.0 0.9 0.00 1.45 0.00 52 1013.3
20260904190448 79 23 0.0 0.9 0.00 1.45 0.00 52 1013.2
20260904185451 80 105 0.0 0.9 0.00 1.45 0.00 52 1013.3
20260904184952 80 89 0.0 0.0 0.00 1.45 0.00 52 1013.3
20260904184453 80 81 0.0 0.0 0.00 1.45 0.00 52 1013.3
20260904183455 80 93 0.0 0.0 0.00 1.45 0.00 52 1013.5
20260904182956 81 162 0.0 0.0 0.00 1.45 0.00 52 1013.4
20260904182451 81 118 0.0 0.0 0.00 1.45 0.00 52 1013.4
20260904181454 81 141 0.0 0.0 0.00 1.45 0.00 52 1013.6
20260904180955 81 131 0.0 0.0 0.00 1.45 0.00 51 1013.5
20260904180004 82 57 0.0 0.0 0.00 1.45 0.00 51 1013.5
20260904175505 82 68 0.0 0.0 0.00 1.45 0.00 51 1013.5
20260904175000 83 129 0.0 0.0 0.00 1.45 0.00 51 1013.5
20260904174501 83 111 0.0 0.9 0.00 1.45 0.00 51 1013.5
20260904174002 83 170 0.0 0.9 0.00 1.45 0.00 51 1013.5
20260904173503 84 129 0.0 0.9 0.00 1.45 0.00 50 1013.5
20260904173005 84 51 0.0 0.9 0.00 1.45 0.00 50 1013.5
20260904172512 85 111 0.0 1.7 0.00 1.45 0.00 50 1013.5
20260904171508 86 96 0.9 1.7 0.00 1.45 0.00 50 1013.4
20260904171016 87 110 0.0 0.0 0.00 1.45 0.00 50 1013.3